GW1572 Weather Reports


Display with metric or nautical units.
time (UTC)temp
F
wind
direction
speed
MPH
gust
MPH
rain 1hr
in
rain 24hr
in
rain mn
in
humidity
%
barometer
mb
20260902120044 71 149 0.0 0.0 0.00 0.00 0.00 99 1010.4
20260902115429 71 149 0.0 0.0 0.00 0.00 0.00 99 1010.8
20260902114825 71 153 0.0 0.0 0.00 0.00 0.00 99 1010.4
20260902114231 71 154 0.0 0.0 0.00 0.00 0.00 99 1010.4
20260902113642 71 155 0.0 0.0 0.00 0.00 0.00 99 1010.4
20260902113050 71 155 0.0 0.0 0.00 0.00 0.00 99 1010.4
20260902112431 71 155 0.0 0.0 0.00 0.00 0.00 99 1010.4
20260902111830 71 155 0.0 0.0 0.00 0.00 0.00 99 1010.4
20260902111235 71 156 0.0 0.0 0.00 0.00 0.00 99 1010.4
20260902110637 71 155 0.0 0.0 0.00 0.00 0.00 99 1010.4
20260902110025 71 155 0.0 0.0 0.00 0.00 0.00 99 1010.4
20260902105423 71 155 0.0 0.0 0.00 0.00 0.00 99 1010.4
20260902104809 71 155 0.0 0.0 0.00 0.00 0.00 99 1010.4
20260902103049 71 154 0.0 0.0 0.00 0.00 0.00 99 1010.4
20260902102410 71 154 0.0 0.0 0.00 0.00 0.00 99 1010.4
20260902101226 71 154 0.0 0.0 0.00 0.00 0.00 99 1010.1
20260902100647 71 154 0.0 0.0 0.00 0.00 0.00 99 1010.1
20260902100047 71 154 0.0 0.0 0.00 0.00 0.00 99 1010.1
20260902095431 71 153 0.0 0.0 0.00 0.00 0.00 99 1010.1
20260902094845 71 152 0.0 0.0 0.00 0.00 0.00 99 1010.1
20260902094218 71 151 0.0 0.0 0.00 0.00 0.00 99 1010.1
20260902093642 71 156 0.0 0.0 0.00 0.00 0.00 99 1010.1
20260902093025 71 156 0.0 0.0 0.00 0.00 0.00 99 1010.1
20260902092418 72 156 0.0 0.0 0.00 0.00 0.00 99 1010.1
20260902091820 72 156 0.0 0.0 0.00 0.00 0.00 99 1010.1
20260902091216 72 156 0.0 0.0 0.00 0.00 0.00 99 1010.1
20260902090613 72 156 0.0 0.0 0.00 0.00 0.00 99 1010.1
20260902090043 72 156 0.0 0.0 0.00 0.00 0.00 99 1010.4
20260902085434 72 156 0.0 0.0 0.00 0.00 0.00 99 1010.1
20260902084839 72 156 0.0 0.0 0.00 0.00 0.00 99 1010.1
20260902084212 72 156 0.0 0.0 0.00 0.00 0.00 99 1010.1
20260902083624 72 156 0.0 0.0 0.00 0.00 0.00 99 1010.1
20260902083037 72 156 0.0 0.0 0.00 0.00 0.00 99 1009.8
20260902082429 72 155 0.0 0.0 0.00 0.00 0.00 99 1009.8
20260902081822 72 155 0.0 0.0 0.00 0.00 0.00 99 1009.4
20260902080610 72 156 0.0 0.0 0.00 0.00 0.00 99 1009.8
20260902080014 72 155 0.0 0.0 0.00 0.00 0.00 99 1009.4
20260902074229 72 156 0.0 0.0 0.00 0.00 0.00 99 1009.4
20260902073616 72 151 0.0 0.0 0.00 0.00 0.00 99 1009.4
20260902073027 72 148 0.0 0.0 0.00 0.00 0.00 99 1009.4
20260902072443 72 148 0.0 0.0 0.00 0.00 0.00 99 1009.4
20260902071828 72 147 0.0 0.0 0.00 0.00 0.00 99 1009.4
20260902071230 72 145 0.0 0.0 0.00 0.00 0.00 99 1009.1
20260902070644 72 153 0.0 0.0 0.00 0.00 0.00 99 1009.4
20260902070017 73 149 0.0 0.0 0.00 0.00 0.00 99 1009.4
20260902065448 73 149 0.0 0.0 0.00 0.00 0.00 99 1009.4
20260902064838 73 147 0.0 0.0 0.00 0.00 0.00 99 1009.4
20260902064248 73 148 0.0 0.0 0.00 0.00 0.00 99 1009.4
20260902063632 73 154 0.0 0.0 0.00 0.00 0.00 99 1009.8
20260902063027 73 153 0.0 0.0 0.00 0.00 0.00 99 1009.8
20260902062406 73 153 0.0 0.0 0.00 0.00 0.00 99 1009.4
20260902061837 73 153 0.0 0.0 0.00 0.00 0.00 99 1009.8
20260902061209 73 153 0.0 0.0 0.00 0.00 0.00 99 1009.4
20260902060040 73 153 0.0 0.0 0.00 0.00 0.00 99 1009.4
20260902055429 73 153 0.0 0.0 0.00 0.00 0.00 99 1009.8
20260902054236 74 152 0.0 0.0 0.00 0.00 0.00 99 1009.4
20260902053613 74 149 0.0 0.0 0.00 0.00 0.00 99 1009.4
20260902053036 74 149 0.0 0.0 0.00 0.00 0.00 99 1009.4
20260902051834 74 150 0.0 0.0 0.00 0.00 0.00 99 1009.4
20260902051227 74 144 0.0 0.0 0.00 0.00 0.00 99 1009.4
20260902050618 74 143 0.0 0.0 0.00 0.00 0.00 99 1009.4
20260902050045 74 139 0.0 0.0 0.00 0.00 0.00 99 1009.4
20260902045448 74 144 0.0 0.0 0.00 0.00 0.00 99 1009.1
20260902044823 74 143 0.0 0.0 0.00 0.00 0.00 99 1009.4
20260902044213 75 144 0.0 0.0 0.00 0.00 0.00 99 1009.1
20260902043043 75 142 0.0 0.0 0.00 0.00 0.00 99 1009.1
20260902042435 75 139 0.0 0.0 0.00 0.00 0.00 99 1009.1
20260902041818 75 134 0.0 0.0 0.00 0.00 0.00 99 1008.8
20260902041251 75 139 0.0 0.0 0.00 0.00 0.00 99 1008.8
20260902040647 75 139 0.0 0.0 0.00 0.00 0.00 99 1009.1
20260902040038 75 137 0.0 0.0 0.00 0.00 0.00 99 1009.1
20260902035430 75 140 0.0 0.0 0.00 0.00 0.00 99 1009.1
20260902034242 76 138 0.0 0.0 0.00 0.00 0.00 99 1009.1
20260902033647 76 139 0.0 0.0 0.00 0.00 0.00 99 1009.1
20260902033012 76 138 0.0 0.0 0.00 0.00 0.00 99 1009.1
20260902032448 76 132 0.0 0.0 0.00 0.00 0.00 99 1009.1
20260902031839 76 101 0.0 0.0 0.00 0.00 0.00 99 1009.1
20260902031230 76 139 0.0 0.0 0.00 0.00 0.00 99 1009.1
20260902030631 76 146 0.0 0.0 0.00 0.00 0.00 99 1009.1
20260902030014 76 148 0.0 0.0 0.00 0.00 0.00 99 1009.1
20260902024214 76 148 0.0 0.0 0.00 0.00 0.00 99 1009.4
20260902023023 76 148 0.0 0.0 0.00 0.00 0.00 98 1009.1
20260902021816 77 148 0.0 0.0 0.00 0.00 0.00 98 1009.1
20260902021246 77 148 0.0 0.0 0.00 0.00 0.00 98 1009.1
20260902020623 77 148 0.0 0.0 0.00 0.00 0.00 98 1009.1
20260902020023 77 148 0.0 0.0 0.00 0.00 0.00 98 1009.1
20260902015432 77 148 0.0 0.0 0.00 0.00 0.00 97 1009.1
20260902014811 77 148 0.0 0.0 0.00 0.00 0.00 97 1009.1
20260902014231 78 148 0.0 0.0 0.00 0.00 0.00 97 1008.8
20260902013647 78 147 0.0 0.0 0.00 0.00 0.00 96 1009.1
20260902013044 78 132 0.0 0.0 0.00 0.00 0.00 96 1008.8
20260902012426 78 132 0.0 0.0 0.00 0.00 0.00 96 1008.8
20260902011824 78 129 0.0 0.0 0.00 0.00 0.00 96 1008.8
20260902011249 79 146 0.0 0.0 0.00 0.00 0.00 95 1008.8
20260902010627 79 151 0.0 0.0 0.00 0.00 0.00 96 1008.8
20260902004807 79 142 0.0 0.0 0.00 0.00 0.00 94 1008.8
20260902004231 80 148 0.0 0.0 0.00 0.00 0.00 93 1008.8
20260902003648 80 139 0.0 0.0 0.00 0.00 0.00 92 1008.8
20260902003026 80 149 0.0 0.0 0.00 0.00 0.00 92 1008.8
20260902001832 81 144 0.0 0.0 0.00 0.00 0.00 90 1008.8
20260902001250 82 142 0.0 0.0 0.00 0.00 0.00 89 1008.4
20260902000646 82 147 0.0 0.0 0.00 0.00 0.00 88 1008.4
20260902000008 83 142 0.0 0.0 0.00 0.00 0.00 86 1008.4
20260901235425 84 148 0.0 0.0 0.00 0.00 0.00 84 1008.8
20260901234817 86 146 0.0 0.0 0.00 0.00 0.00 81 1008.4
20260901234248 87 147 0.0 0.0 0.00 0.00 0.00 78 1008.8
20260901233618 88 148 0.0 0.0 0.00 0.00 0.00 76 1008.8
20260901233023 90 148 0.0 0.0 0.00 0.00 0.00 73 1008.8
20260901232439 91 143 0.0 0.0 0.00 0.00 0.00 71 1008.8
20260901231820 92 146 0.0 0.0 0.00 0.00 0.00 69 1008.4
20260901231211 92 150 0.0 0.0 0.00 0.00 0.00 69 1008.4
20260901230012 93 149 0.0 0.0 0.00 0.00 0.00 69 1008.4
20260901224843 93 144 0.0 0.0 0.00 0.00 0.00 68 1008.4
20260901224227 93 352 2.0 2.0 0.00 0.00 0.00 63 1008.1
20260901223610 93 215 2.0 2.0 0.00 0.00 0.00 62 1008.1
20260901223026 93 136 1.0 1.0 0.00 0.00 0.00 62 1008.1
20260901222408 93 140 1.0 1.0 0.00 0.00 0.00 62 1007.7
20260901221818 93 318 2.0 3.0 0.00 0.00 0.00 61 1008.1
20260901221208 93 346 2.0 2.0 0.00 0.00 0.00 62 1008.1
20260901220050 94 355 2.0 4.0 0.00 0.00 0.00 58 1008.1
20260901215424 94 338 1.0 1.0 0.00 0.00 0.00 57 1008.4
20260901214808 95 303 2.0 3.0 0.00 0.00 0.00 58 1008.1
20260901214217 95 277 1.0 1.0 0.00 0.00 0.00 56 1008.4
20260901213621 96 25 2.0 2.0 0.00 0.00 0.00 57 1008.4
20260901213041 98 273 2.0 3.0 0.00 0.00 0.00 57 1008.4
20260901212422 97 194 0.0 1.0 0.00 0.00 0.00 61 1008.8
20260901211846 96 188 1.0 1.0 0.00 0.00 0.00 61 1008.8
20260901211230 98 184 1.0 1.0 0.00 0.00 0.00 59 1008.8
20260901210641 99 189 1.0 1.0 0.00 0.00 0.00 59 1008.8
20260901210006 98 158 1.0 1.0 0.00 0.00 0.00 52 1008.8
20260901205447 98 263 1.0 1.0 0.00 0.00 0.00 56 1008.8
20260901204809 97 196 1.0 1.0 0.00 0.00 0.00 59 1009.1
20260901204240 97 188 0.0 1.0 0.00 0.00 0.00 58 1009.1
20260901203613 97 184 1.0 2.0 0.00 0.00 0.00 55 1009.1
20260901203012 96 143 2.0 2.0 0.00 0.00 0.00 56 1009.1
20260901202421 97 210 1.0 1.0 0.00 0.00 0.00 60 1009.1
20260901201234 95 206 2.0 2.0 0.00 0.00 0.00 53 1009.1
20260901200609 97 204 4.0 6.0 0.00 0.00 0.00 54 1009.1
20260901200012 97 195 1.0 1.0 0.00 0.00 0.00 56 1009.4
20260901195425 95 209 1.0 2.0 0.00 0.00 0.00 57 1009.4
20260901194829 95 204 1.0 2.0 0.00 0.00 0.00 58 1009.4
20260901194241 94 159 1.0 1.0 0.00 0.00 0.00 64 1009.4
20260901193608 94 179 1.0 1.0 0.00 0.00 0.00 65 1009.4
20260901193026 93 153 0.0 0.0 0.00 0.00 0.00 69 1009.8
20260901192409 92 124 0.0 0.0 0.00 0.00 0.00 69 1009.8
20260901191832 93 184 1.0 1.0 0.00 0.00 0.00 62 1009.8
20260901191242 94 196 3.0 4.0 0.00 0.00 0.00 63 1010.1
20260901190629 94 212 4.0 8.0 0.00 0.00 0.00 58 1010.1
20260901190017 93 215 3.0 4.0 0.00 0.00 0.00 61 1009.8
20260901185410 93 226 4.0 4.0 0.00 0.00 0.00 59 1010.1
20260901184216 93 208 3.0 3.0 0.00 0.00 0.00 65 1009.8
20260901183627 93 191 1.0 2.0 0.00 0.00 0.00 63 1010.1
20260901181814 91 223 3.0 4.0 0.00 0.00 0.00 67 1010.4
20260901181235 92 206 1.0 2.0 0.00 0.00 0.00 67 1010.4
20260901180639 92 249 2.0 2.0 0.00 0.00 0.00 65 1010.1
20260901180039 92 195 2.0 2.0 0.00 0.00 0.00 66 1010.1
20260901175425 90 172 0.0 0.0 0.00 0.00 0.00 74 1010.4
20260901174239 88 272 1.0 1.0 0.00 0.00 0.00 71 1010.8
20260901171834 92 324 2.0 3.0 0.00 0.00 0.00 67 1010.8
20260901171219 92 197 3.0 4.0 0.00 0.00 0.00 69 1011.1
20260901170641 92 34 0.0 1.0 0.00 0.00 0.00 68 1011.1
20260901170006 91 270 2.0 3.0 0.00 0.00 0.00 72 1010.8
20260901165427 92 269 4.0 6.0 0.00 0.00 0.00 69 1010.8
20260901164845 91 167 1.0 1.0 0.00 0.00 0.00 71 1011.1
20260901164209 91 271 1.0 2.0 0.00 0.00 0.00 71 1011.1
20260901163630 91 238 3.0 3.0 0.00 0.00 0.00 71 1011.1
20260901162428 90 297 1.0 1.0 0.00 0.00 0.00 72 1010.8
20260901161234 89 268 3.0 4.0 0.00 0.00 0.00 74 1010.8
20260901160648 89 235 2.0 2.0 0.00 0.00 0.00 75 1010.8
20260901160032 89 290 4.0 6.0 0.00 0.00 0.00 72 1010.8
20260901155427 89 290 2.0 3.0 0.00 0.00 0.00 74 1011.1
20260901154836 89 260 4.0 4.0 0.00 0.00 0.00 74 1010.8
20260901154234 89 234 3.0 3.0 0.00 0.00 0.00 75 1010.4
20260901153649 88 328 3.0 3.0 0.00 0.00 0.00 76 1010.8
20260901153008 88 298 3.0 3.0 0.00 0.00 0.00 76 1011.1
20260901151246 87 196 1.0 2.0 0.00 0.00 0.00 81 1010.8
20260901150612 87 213 1.0 1.0 0.00 0.00 0.00 81 1011.1
20260901150037 86 224 2.0 2.0 0.00 0.00 0.00 81 1010.8
20260901145446 85 314 2.0 2.0 0.00 0.00 0.00 84 1010.8
20260901144815 84 145 1.0 1.0 0.00 0.00 0.00 83 1010.8
20260901144222 84 348 3.0 3.0 0.00 0.00 0.00 86 1010.8
20260901143625 83 148 1.0 1.0 0.00 0.00 0.00 89 1011.1
20260901143011 82 212 1.0 2.0 0.00 0.00 0.00 88 1010.8
20260901142416 81 183 0.0 1.0 0.00 0.00 0.00 93 1011.1
20260901141828 81 143 0.0 0.0 0.00 0.00 0.00 95 1011.1
20260901141246 80 170 1.0 1.0 0.00 0.00 0.00 96 1011.1
20260901140646 79 131 0.0 0.0 0.00 0.00 0.00 98 1010.8
20260901140040 79 135 0.0 0.0 0.00 0.00 0.00 99 1011.1
20260901135427 78 144 0.0 0.0 0.00 0.00 0.00 99 1010.8
20260901134825 77 135 0.0 0.0 0.00 0.00 0.00 99 1011.1
20260901134207 77 161 0.0 0.0 0.00 0.00 0.00 99 1011.1
20260901133629 77 151 0.0 0.0 0.00 0.00 0.00 99 1011.1
20260901133015 76 143 0.0 0.0 0.00 0.00 0.00 99 1011.1
20260901132425 76 142 0.0 0.0 0.00 0.00 0.00 99 1011.1
20260901131809 75 149 0.0 0.0 0.00 0.00 0.00 99 1011.1
20260901131233 75 134 0.0 0.0 0.00 0.00 0.00 99 1011.1
20260901130010 74 142 0.0 0.0 0.00 0.00 0.00 99 1011.1
20260901124820 74 135 0.0 0.0 0.00 0.00 0.00 99 1011.5
20260901124234 73 141 0.0 0.0 0.00 0.00 0.00 99 1011.5
20260901123643 73 141 0.0 0.0 0.00 0.00 0.00 99 1011.1
20260901123037 73 140 1.0 1.0 0.00 0.00 0.00 99 1011.1
20260901121830 72 136 0.0 0.0 0.00 0.00 0.00 99 1011.1
20260901121236 72 142 0.0 0.0 0.00 0.00 0.00 99 1011.1
20260901120608 72 141 0.0 0.0 0.00 0.00 0.00 99 1011.1